Retour au catalogue

COSMOS 1375 DEB

ActifLEO
NORAD 16387·DEBRIS·🇷🇺 Russia

Lancé Jun 6, 1982 depuis Plesetsk Cosmodrome

Loading…

Prochains Passages (prochaines 24 heures)

TLE

FraisSource: Space-Track

Époque: Sep 14, 2026, 10:06 UTC

1 16387U 82055AB  26257.42142584 -.00000024  00000-0  51204-4 0  9990
2 16387  65.8365 298.9141 0049981   5.2800   6.8802 13.84960260 67365

Suivez COSMOS 1375 DEB en temps réel avec AllMySat

Download on the App Store